Kalispell, MT

7:47 PM MDT on May 21, 2018 (GMT -0600)
Glacier Park International

Weather History for KGPI - April, 2012

Change the Weather History Date:

Monday, April 2, 2012

  Actual Average Record
Temperature  
Mean Temperature 38 °F 41 °F  
Max Temperature 49 °F 52 °F 72 °F (1990)
Min Temperature 26 °F 29 °F -5 °F (1936)
Degree Days  
Heating Degree Days 27 24  
Month to date heating degree days 49 49  
Since 1 July heating degree days 6356 6820  
Cooling Degree Days 0 0  
Month to date cooling degree days 0 0  
Year to date cooling degree days 0 0  
Moisture  
Dew Point 24 °F    
Average Humidity 60    
Maximum Humidity 85    
Minimum Humidity 34    
Precipitation  
Precipitation 0.00 in 0.03 in 0.31 in (1983)
Month to date precipitation T 0.07  
Year to date precipitation 4.06 3.46  
Snow  
Snow 0.00 in - - ()
Month to date snowfall 0.0  
Year to date snowfall 25.1  
Since 1 July snowfall 31.4  
Snow Depth 0.00 in    
Sea Level Pressure  
Sea Level Pressure 30.26 in    
Wind  
Wind Speed 6 mph (South)    
Max Wind Speed 14 mph    
Max Gust Speed 20 mph    
Visibility 10 miles    
Events      
T = Trace of Precipitation, MM = Missing Value Source: NWS Daily Summary

Daily Weather History Graph

Daily Weather History Graph

Search for Another Location

Airport or City:

Astronomy

Apr. 02, 2012 Rise Set
Actual Time 7:11 AM MDT 8:09 PM MDT
Civil Twilight 6:40 AM MDT 8:41 PM MDT
Nautical Twilight 6:02 AM MDT 9:19 PM MDT
Astronomical Twilight 5:21 AM MDT 10:00 PM MDT
Moon 3:31 PM MDT (4/2) 4:48 AM MDT (4/2)
Length of Visible Light 14h 01m
Length of Day
12h 57m
Waxing Gibbous, 79% of the Moon is Illuminated
Apr 2
Waxing Gibbous
Apr 6
Full
Apr 13
Last Quarter
Apr 21
New
Apr 29
First Quarter

Hourly Weather History & Observations

Time (MDT) Temp. Windchill Dew Point Humidity Pressure Visibility Wind Dir Wind Speed Gust Speed Precip Events Conditions
12:55 AM 36.0 °F 28.5 °F 28.0 °F 73% 30.09 in 10.0 mi SE 10.4 mph - N/A   Overcast
1:55 AM 37.0 °F 32.4 °F 26.1 °F 65% 30.13 in 10.0 mi SSW 5.8 mph - N/A   Overcast
2:55 AM 36.0 °F 29.6 °F 27.0 °F 70% 30.16 in 10.0 mi SSE 8.1 mph - N/A   Overcast
3:55 AM 36.0 °F 30.3 °F 26.1 °F 67% 30.17 in 10.0 mi South 6.9 mph - N/A   Overcast
4:55 AM 35.1 °F 32.2 °F 28.0 °F 76% 30.21 in 10.0 mi SSE 3.5 mph - N/A   Overcast
5:55 AM 33.1 °F 27.7 °F 28.0 °F 82% 30.24 in 10.0 mi South 5.8 mph - N/A   Mostly Cloudy
6:55 AM 30.9 °F 25.2 °F 27.0 °F 85% 30.28 in 10.0 mi South 5.8 mph - N/A   Scattered Clouds
7:55 AM 32.0 °F 27.5 °F 28.0 °F 85% 30.31 in 10.0 mi South 4.6 mph - N/A   Clear
8:55 AM 37.9 °F 31.5 °F 28.9 °F 70% 30.33 in 10.0 mi South 9.2 mph - N/A   Overcast
9:55 AM 39.9 °F 33.4 °F 28.0 °F 63% 30.34 in 10.0 mi SSE 10.4 mph - N/A   Overcast
10:55 AM 42.1 °F 35.7 °F 27.0 °F 55% 30.33 in 10.0 mi SSE 11.5 mph 17.3 mph N/A   Overcast
11:55 AM 42.1 °F 38.4 °F 24.1 °F 49% 30.34 in 10.0 mi Variable 5.8 mph - N/A   Overcast
12:55 PM 46.9 °F - 19.9 °F 34% 30.33 in 10.0 mi SW 8.1 mph 16.1 mph N/A   Overcast
1:55 PM 46.0 °F 42.5 °F 19.9 °F 35% 30.32 in 10.0 mi West 6.9 mph - N/A   Overcast
2:55 PM 46.0 °F 44.8 °F 19.0 °F 34% 30.31 in 10.0 mi Variable 3.5 mph - N/A   Overcast
3:55 PM 46.9 °F - 19.9 °F 34% 30.30 in 10.0 mi SSE 5.8 mph - N/A   Overcast
4:55 PM 46.9 °F - 19.9 °F 34% 30.28 in 10.0 mi SSW 6.9 mph - N/A   Mostly Cloudy
5:55 PM 46.9 °F - 23.0 °F 39% 30.27 in 10.0 mi SSE 9.2 mph - N/A   Mostly Cloudy
6:55 PM 46.0 °F 41.0 °F 21.9 °F 39% 30.26 in 10.0 mi SSE 10.4 mph - N/A   Partly Cloudy
7:55 PM 43.0 °F 38.2 °F 23.0 °F 45% 30.26 in 10.0 mi South 8.1 mph - N/A   Clear
8:55 PM 39.0 °F 35.7 °F 21.9 °F 50% 30.26 in 10.0 mi South 4.6 mph - N/A   Clear
9:55 PM 34.0 °F - 24.1 °F 67% 30.27 in 10.0 mi Calm Calm - N/A   Clear
10:55 PM 30.0 °F 26.5 °F 24.1 °F 79% 30.26 in 10.0 mi North 3.5 mph - N/A   Clear
11:55 PM 28.0 °F - 23.0 °F 81% 30.25 in 10.0 mi Calm Calm - N/A   Clear